This is the latest recevied weather packets stored in our database for station/object DG8GAA-11. If no packets are shown the sender has not sent any weather packets the latest 10 day(s).
| Time | Temp. | Humidity | Pressure | Rain* | Wind** | Luminosity | Snow |
|---|---|---|---|---|---|---|---|
| 1777475463 | 30° C | 19% | 998.4 hPa | - | - | - | - |
| 1777473657 | 28.89° C | 19% | 998.5 hPa | - | - | - | - |
| 1777472754 | 28.33° C | 19% | 998.5 hPa | - | - | - | - |
| 1777471851 | 27.22° C | 20% | 998.6 hPa | - | - | - | - |
| 1777470045 | 26.67° C | 20% | 998.5 hPa | - | - | - | - |
| 1777469142 | 26.11° C | 19% | 998.6 hPa | - | - | - | - |
| 1777468302 | 26.11° C | 21% | 998.4 hPa | - | - | - | - |
| 1777467392 | 25.56° C | 16% | 998.5 hPa | - | - | - | - |
| 1777467330 | 25.56° C | 16% | 998.4 hPa | - | - | - | - |
| 1777467308 | 25.56° C | 17% | 998.1 hPa | - | - | - | - |
| 1777467281 | 25.56° C | 16% | 997.6 hPa | - | - | - | - |
| 1777467246 | 25.56° C | 17% | 997.6 hPa | - | - | - | - |
| 1777467192 | 25.56° C | 17% | 998.2 hPa | - | - | - | - |
| 1777467137 | 25.56° C | 16% | 996.9 hPa | - | - | - | - |
| 1777467004 | 25.56° C | 16% | 997.2 hPa | - | - | - | - |
| 1777466979 | 25.56° C | 17% | 996.6 hPa | - | - | - | - |
| 1777466916 | 25.56° C | 17% | 996.7 hPa | - | - | - | - |
| 1777466838 | 25.56° C | 17% | 995.5 hPa | - | - | - | - |
| 1777466775 | 25.56° C | 17% | 995.1 hPa | - | - | - | - |
| 1777466747 | 25.56° C | 17% | 993.9 hPa | - | - | - | - |
| 1777466716 | 25.56° C | 17% | 993.4 hPa | - | - | - | - |
| 1777466667 | 25.56° C | 16% | 992.5 hPa | - | - | - | - |
| 1777466645 | 25.56° C | 17% | 991.7 hPa | - | - | - | - |
| 1777466523 | 25.56° C | 16% | 986.9 hPa | - | - | - | - |
| 1777465915 | 26.67° C | 17% | 984.9 hPa | - | - | - | - |
* Rain since midnight (hover to see other rain measurements)
** Current wind speed in m/s (hover to see current wind gust speed)